Starlink 4372

operational
NORAD ID: 53233 Int'l Des: 2022-084 Owner: SPXS Country: US Constellation: starlink
LEOCIRCULARRETROGRADESSO

Starlink 4372について

説明を読み込み中...

リアルタイム位置

3D地球を読み込み中...

次回通過

高度履歴

Altitude vs Time

uPlot chart will show altitude changes over time

軌道要素

1 53233U 22084AW 25308.60814520 .00001419 00000-0 11494-3 0 9993
2 53233 97.6024 7.7456 0002632 189.5671 170.5504 15.01273537180550
Epoch: Nov 4, 2025 • Age: 9 hours

現在のステータス

高度 564.7 km
速度 7.58 km/s
衛星直下点 -3.53°S, 152.06°E
打ち上げ日 Jul 22, 2022
運用期間 3.2 years
タイプ internet

技術仕様

分類 Payload
質量 297.00 kg
乾燥質量 275.00 kg
総質量 297.00 kg
長さ 0.20 m
直径 2.80 m
スパン 9.00 m
形状 Box + pan
製造者 SPXS
バスタイプ Starlink
フェーズステータス In Orbit
所有者/国 SPXS/US

大規模コンステレーション

Loading constellations...